Location: *
(48.4333°N, 5.0333°W)
Time: 01:49:59
(UTC+00:00)

Ariane Rocket - Pass Details

Date: 09 April 2020
Orbit: 761 x 769 km, 98.7° (Epoch: 29 May)

Event Time Altitude Azimuth Distance (km) Brightness Sun altitude
Rises 20:06:10 0° 179° (S) 3,217 6.0 -10.7°
Reaches altitude 10° 20:08:32 10° 185° (S) 2,295 5.3 -11.1°
Maximum altitude 20:13:26 49° 260° (W) 976 3.9 -11.8°
Drops below altitude 10° 20:18:22 10° 336° (NNW) 2,307 6.3 -12.5°
Sets 20:20:45 0° 341° (NNW) 3,237 7.0 -12.9°
